www.pogodaiklimat.ru

Погода и климат >> Архив погоды >> Россия >> Ненецкий АО >> Бугрино


ПОГОДА в Бугрино

  • Прогноз погоды в Бугрино
  • Монитор погоды в Бугрино

АРХИВ ПОГОДЫ в Бугрино

Время (UTC), дата Ветер
(напр.,м/с)
 
Видим.   Явления Облачность Т
(С)
Тd
(С)
f
(%)
Тe
(С)
Тes
(С)
Комфортность P
(гПа)
Po
(гПа)
Тmin
(С)
Tmax
(С)
R
(мм)
R24
(мм)
S
(см)
18 16.08 СЗ 5 10 км 9/8 300 м
[St Ac trans]
+9.1 +9.1 100 +5 +5 1006.7 1005.7
21 16.08 СЗ 5 10 км 10/10 210 м
[St]
+8.1 +8.1 100 +4 +4 1008.8 1007.9
00 17.08 СЗ 3 10 км 10/10 210 м
[St]
+7.9 +7.9 100 +5 +5 1011.0 1010.0
03 17.08 СЗ 3 10 км 10/10 240 м
[St]
+8.4 +8.4 100 +6 +6 1012.8 1011.9 +7.8
06 17.08 СЗ 4 10 км 10/10 330 м
[St]
+9.1 +8.9 99 +6 +6 1014.6 1013.7
09 17.08 З 3 20 км 8/8 600 м
[Sc]
+12.0 +9.8 86 +10 +11 1015.9 1014.9
12 17.08 З 4 20 км 4/4 600 м
[Sc]
+10.3 +8.4 88 +8 +9 1017.4 1016.5
15 17.08 З 4 10 км 10/10 270 м
[St]
+8.3 +8.0 98 +5 +5 1018.3 1017.3 +12.0
18 17.08 Ю 4 10 км 9/9 210 м
[St]
+8.6 +8.6 100 +5 +5 1018.6 1017.6
21 17.08 ЮЗ 5 10 км 8/8 200 м
[St]
+9.1 +9.1 100 +5 +5 1018.7 1017.7
00 18.08 ЮЗ 5 10 км 8/0
[Ac trans]
+9.3 +9.3 100 +6 +6 1019.4 1018.5
03 18.08 ЮЗ 6 10 км 5/1 200 м
[St Ac trans Ci fib]
+9.8 +9.8 100 +6 +6 1019.4 1018.5 +8.0
06 18.08 ЮЗ 6 10 км 6/6 300 м
[Cu med, cong]
+10.4 +10.3 99 +7 +8 1020.0 1019.0
09 18.08 ЮЗ 6 10 км ясно +11.9 +11.2 95 +9 +12 1020.2 1019.3
12 18.08 ЮЗ 6 10 км 6/0
[Ac trans]
+11.5 +10.9 96 +8 +9 1021.0 1020.1
15 18.08 ЮЗ 5 10 км 1/0
[Ac trans]
+12.3 +11.2 93 +10 +10 1021.4 1020.4 +12.6
18 18.08 ЮЗ 4 10 км 3/0
[Ac trans Ci fib]
+11.6 +10.7 94 +9 +9 1022.3 1021.3
21 18.08 Ю 4 10 км 1/0
[Ac trans]
+11.9 +11.0 94 +10 +10 1023.0 1022.1
00 19.08 ЮЗ 2 10 км 1/0
[Ac trans]
+10.6 +9.8 95 +9 +9 1023.9 1022.9
03 19.08 Ю 4 10 км 4/0
[Ac trans Ci fib]
+10.9 +10.0 94 +8 +9 1024.3 1023.3 +9.9
06 19.08 Ю 4 10 км 4/0
[Ci fib]
+11.7 +10.6 93 +9 +12 1024.3 1023.3
09 19.08 Ю 4 20 км 3/0
[Ci fib]
+13.5 +12.1 91 +12 +16 1023.5 1022.5
12 19.08 В 3 20 км 4/0
[Ci fib]
+14.4 +12.8 90 +13 +16 1022.7 1021.7
15 19.08 В 5 20 км 8/0
[Ac trans Ci fib]
+14.0 +12.2 89 +12 +12 1021.6 1020.7 +14.9
18 19.08 ЮВ 6 20 км 1/0
[Ac trans]
+13.7 +11.7 88 +11 +11 1020.7 1019.8
21 19.08 ЮВ 7 10 км 4/0
[Ac trans]
+12.5 +11.5 94 +10 +10 1019.9 1018.9
00 20.08 ЮВ 7 10 км 1/0
[Ac trans]
+12.0 +11.2 95 +9 +9 1019.0 1018.1
03 20.08 ЮВ 6 10 км 4/1 600 м
[Cu med, cong Ac trans]
+11.8 +11.1 95 +9 +9 1017.8 1016.8 +11.4
06 20.08 ЮВ 7 10 км 9/0
[Ac trans]
+12.5 +11.7 95 +10 +10 1017.5 1016.5
09 20.08 Ю 5 10 км 9/0
[Ac As]
+13.4 +12.3 93 +11 +13 1016.8 1015.9
12 20.08 Ю 4 10 км 9/6 600 м
[Sc Ac trans]
+13.7 +12.3 91 +12 +13 1016.5 1015.6
15 20.08 Ю 1 10 км 9/6 600 м
[Sc Ac trans]
+12.8 +12.0 95 +13 +13 1016.4 1015.4 +13.8
18 20.08 Ю 3 10 км в посл. час ливневой дождь 9/9 600 м
[Cb cap]
+13.6 +13.5 99 +12 +12 1015.7 1014.7
21 20.08 Ю 3 10 км 9/9 600 м
[Sc]
+13.1 +13.1 100 +12 +12 1015.6 1014.6
00 21.08 Ю 2 4000 м дымка 10/10 210 м
[St]
+11.5 +11.5 100 +10 +10 1015.2 1014.2
03 21.08 штиль 0 500 м туман ?/? +12.4 +12.4 100 +12 +12 1014.8 1013.9 +11.1 1
06 21.08 З 3 10 км {туман} 9/9 300 м
[St]
+14.9 +14.9 100 +14 +14 1014.6 1013.7
09 21.08 ЮЗ 4 10 км 9/3 300 м
[Sc Ac trans Ci fib]
+16.8 +16.1 96 +16 +18 1015.0 1014.1
12 21.08 ЮЗ 4 4000 м дымка 9/1 300 м
[Sc Ac trans Ci fib]
+12.1 +12.1 100 +10 +11 1015.4 1014.5
15 21.08 З 2 10 км 9/0
[Ac trans Ci fib]
+14.7 +13.5 93 +14 +15 1015.4 1014.5 +17.6
18 21.08 З 2 10 км 9/0
[Ac trans Ci fib]
+10.5 +10.5 100 +9 +9 1015.6 1014.7
21 21.08 СЗ 3 4000 м дымка 8/0
[Ac trans Ci fib]
+6.8 +6.8 100 +4 +4 1015.4 1014.4
00 22.08 З 3 2000 м дымка 4/0
[Ac trans Ci fib]
+6.1 +6.1 100 +3 +3 1015.1 1014.1
03 22.08 З 2 10 км 3/0
[Ac trans Ci fib]
+8.6 +8.6 100 +7 +7 1015.3 1014.3 +5.6
06 22.08 ЮЗ 3 10 км 6/0
[Ac trans]
+12.7 +12.5 99 +11 +13 1015.2 1014.2
09 22.08 ЮЗ 3 10 км 1/0
[Ac trans]
+12.6 +12.1 97 +11 +16 1014.8 1013.8
12 22.08 Ю 2 10 км 3/3 300 м
[Sc Ac trans]
+12.4 +11.7 95 +11 +14 1014.0 1013.0
15 22.08 ЮЗ 3 10 км 1/0
[Ac trans]
+11.6 +11.2 97 +10 +10 1013.1 1012.2 +13.5
18 22.08 ЮВ 2 10 км 1/0
[Ac trans]
+10.5 +10.5 100 +9 +9 1012.6 1011.6
21 22.08 С 2 2000 м дымка 9/0
[Ac trans]
+6.4 +6.4 100 +4 +4 1011.7 1010.7
00 23.08 СВ 4 500 м туман ?/? +9.7 +9.7 100 +7 +7 1010.8 1009.8
03 23.08 С 5 500 м туман ?/? +9.5 +9.5 100 +6 +6 1010.6 1009.7 +6.1
06 23.08 СВ 5 500 м туман ?/? +9.4 +9.4 100 +6 +6 1011.1 1010.5
09 23.08 СВ 5 10 км {туман} 10/10 240 м
[St]
+9.1 +9.1 100 +5 +5 1012.0 1011.0
12 23.08 С 4 10 км {туман} 10/10 300 м
[St]
+8.8 +8.7 99 +6 +6 1013.2 1012.3
15 23.08 С 5 10 км 10/10 360 м
[St]
+6.7 +6.2 97 +2 +2 1014.4 1013.4 +9.7

 

Местоположение метеостанции Бугрино (Ненецкий АО, Россия): широта 68.80 долгота 49.33 высота над уровнем моря 7 м.

В архиве по умолчанию представлена погода в Бугрино за последнюю неделю. Архивные данные за месяц целиком и за предыдущие месяцы, начиная с января 2011 года, Вы можете получить, выбрав интересующий диапазон дат из раскрывающегося списка и нажав кнопку "Ввод!".


*Определитесь, кто Вы:
робот инопланетянин человек

Внимание! Время в таблицах - всемирное. Для получения местного времени необходимо прибавить поправку, которая равна 3 ч.

Смотрите также архив погоды в соседних городах и на ближайших метеорологических станциях:

Погода на Колгуевом Острове (Ненецкий АО, Россия) (82 км)
Погода в Сенгейском Шаре (Ненецкий АО, Россия) (86 км)
Погода в Индиге (Ненецкий АО, Россия) (127 км)
Погода на Мысе Микулкин (Ненецкий АО, Россия) (156 км)
Погода в Ходоварихе (Ненецкий АО, Россия) (178 км)
Погода в Нарьян-Маре (Ненецкий АО, Россия) (200 км)
Погода в Коткино (Ненецкий АО, Россия) (211 км)
Погода в Шойне (Ненецкий АО, Россия) (235 км)
Погода в Нижней Пеше (Ненецкий АО, Россия) (237 км)
Погода в Канином Носе (Ненецкий АО, Россия) (244 км)

Пояснения к столбцам:

Ветер - указаны скорость ветра в м/с - средняя за 10 мин, порывы в срок и между сроками (в фигурных скобках) и направление, откуда дует ветер: С - северный, СВ - северо-восточный, В - восточный, ЮВ - юго-восточный, Ю - южный, ЮЗ - юго-западный, З - западный, СЗ - северо-западный.
Видимость - горизонтальная дальность видимости в метрах или километрах. При видимости от 1 до 10 км при отсутствии осадков обычно наблюдается дымка, при ухудшении видимости до 1 км и менее - туман. В сухую погоду видимость может ухудшаться дымом, пылью или мглою.
Явления - указаны атмосферные явления, наблюдавшиеся в срок или в последний час перед сроком; фигурными скобками обозначены явления, наблюдавшиеся между сроками (за 1-3 часа до срока); квадратными скобками обозначены град или гололедные отложения с указанием их диаметра в мм.
Облачность - указаны через наклонную черту общая и нижняя облачность в баллах и высота нижней границы облаков в метрах; квадратными скобками обозначены формы облаков: Ci - перистые, Cs - перисто-слоистые, Cc - перисто-кучевые, Ac - высококучевые, As - высокослоистые, Sc - слоисто-кучевые, Ns - слоисто-дождевые, Cu - кучевые, Cb - кучево-дождевые. Подробнее классификацию облаков см. в Атласе облаков (PDF).
T - Температура воздуха - температура, измеренная на высоте 2 м над землей.
Td - Температура точки росы - температура, при понижении до которой содержащийся в воздухе водяной пар достигнет насыщения.
f - Относительная влажность воздуха - влажноcть воздуха, измеренная на высоте 2 м над землей.
Te - Эффективная температура - температура, которую ощущает одетый по сезону человек в тени. Характеристика душности погоды. При расчете учитывается влияние влажности воздуха и скорости ветра на теплоощущения человека.
Tes - Эффективная температура на солнце - температура, которую ощущает человек, с поправкой на солнечный нагрев. Характеристика знойности погоды. Зависит от высоты солнца над горизонтом, облачности и скорости ветра. Ночью, в пасмурную погоду, а также при ветре 12 м/с и более поправка равна нулю.
P - Атмосферное давление - приведенное к уровню моря атмосферное давление.
Po - Атмосферное давление - измеренное на уровне метеостанции атмосферное давление.
Tmin - Минимальная температура - минимум температуры воздуха на высоте 2 м над землей.
Tmax - Максимальная температура - максимум температуры воздуха на высоте 2 м над землей.
R - Количество осадков - Количество выпавших осадков за период времени, мм. При наведении курсора мыши на число - период времени, за который выпало указанное количество осадков.
R24 - Количество осадков - Количество выпавших осадков за 24 часа, мм.
S - Снежный покров - Высота снежного покрова, см. При наведении курсора мыши на число - состояние снежного покрова и степень покрытия местности в баллах.